This is the latest recevied weather packets stored in our database for station/object R2AKT-13. If no packets are shown the sender has not sent any weather packets the latest 10 day(s).
| Time | Temp. | Humidity | Pressure | Rain* | Wind** | Luminosity | Snow |
|---|---|---|---|---|---|---|---|
| 1788366096 | 17.78° C | 63% | 987.2 hPa | - | 0.89 m/s, 260° | - | - |
| 1788365563 | 17.78° C | 63% | 987.2 hPa | - | 1.34 m/s, 262° | - | - |
| 1788364971 | 17.78° C | 62% | 987.2 hPa | - | 0.45 m/s, 257° | - | - |
| 1788364471 | 17.78° C | 61% | 987 hPa | - | 0.45 m/s, 217° | - | - |
| 1788363885 | 17.78° C | 61% | 987 hPa | - | 1.34 m/s, 257° | - | - |
| 1788363341 | 18.33° C | 60% | 987 hPa | - | 0.45 m/s, 243° | - | - |
| 1788362781 | 18.33° C | 59% | 987 hPa | - | 0.89 m/s, 246° | - | - |
| 1788362196 | 18.89° C | 57% | 986.8 hPa | - | 0.89 m/s, 252° | - | - |
| 1788361641 | 18.89° C | 56% | 986.9 hPa | - | 1.34 m/s, 213° | - | - |
| 1788361086 | 18.89° C | 57% | 987 hPa | - | 0.89 m/s, 247° | - | - |
| 1788360496 | 18.89° C | 57% | 986.9 hPa | - | 0.89 m/s, 245° | - | - |
| 1788359991 | 19.44° C | 55% | 986.9 hPa | - | 0.45 m/s, 224° | - | - |
| 1788359481 | 19.44° C | 56% | 986.8 hPa | - | 0.89 m/s, 200° | - | - |
| 1788358951 | 20° C | 55% | 986.9 hPa | - | 0.45 m/s, 232° | - | - |
| 1788358391 | 19.44° C | 57% | 987 hPa | - | 1.79 m/s, 182° | - | - |
| 1788357905 | 19.44° C | 58% | 987 hPa | - | 0.89 m/s, 252° | - | - |
| 1788357325 | 19.44° C | 57% | 987 hPa | - | 1.34 m/s, 234° | - | - |
| 1788356846 | 19.44° C | 57% | 987.1 hPa | - | 1.34 m/s, 205° | - | - |
| 1788356245 | 19.44° C | 57% | 987.1 hPa | - | 0.89 m/s, 181° | - | - |
| 1788355736 | 18.89° C | 58% | 987.1 hPa | - | 0.89 m/s, 235° | - | - |
| 1788355181 | 18.89° C | 58% | 987.2 hPa | - | 0.89 m/s, 266° | - | - |
| 1788354641 | 18.89° C | 58% | 987.2 hPa | - | 0.89 m/s, 249° | - | - |
| 1788354106 | 19.44° C | 57% | 987.1 hPa | - | 0.89 m/s, 216° | - | - |
| 1788353576 | 19.44° C | 58% | 987.2 hPa | - | 1.79 m/s, 250° | - | - |
| 1788352976 | 19.44° C | 61% | 987.1 hPa | - | 1.34 m/s, 260° | - | - |
* Rain since midnight (hover to see other rain measurements)
** Current wind speed in m/s (hover to see current wind gust speed)